Wind_Speed
31 31 31 29 29 28 28 28 28 28 27 26 26 27 26 25 26 27 27 28 29 30 30 31 32 33 34 36 37 38 40 42 43 44 45 47 48 48 49 48 48 47 47
28 29 29 29 29 28 28 28 27 27 27 27 27 27 26 26 26 27 27 28 29 30 31 32 33 34 36 37 38 40 41 43 44 45 45 45 46 46 46 46 45 44 42
27 27 28 28 28 28 28 28 28 27 27 27 27 26 26 27 27 27 28 29 31 31 32 33 34 36 37 38 39 40 42 42 43 43 43 43 43 43 42 41 40 39 39
26 26 26 27 28 29 29 29 28 27 28 28 27 27 28 28 28 29 29 30 31 32 34 34 35 37 37 38 39 40 40 41 41 41 40 39 38 37 36 35 35 34 34
25 26 26 27 27 28 28 29 29 28 28 28 28 28 29 29 29 29 29 30 31 32 33 34 35 36 36 37 37 37 37 37 37 36 35 34 33 32 32 32 31 30 30
24 24 25 25 26 26 26 26 27 27 27 27 27 27 27 28 28 29 29 30 31 32 32 33 34 34 35 35 35 35 34 32 32 31 30 29 29 29 29 28 27 27 26
23 24 24 24 24 24 26 26 26 26 25 25 25 25 25 26 26 27 28 29 30 31 31 31 32 32 32 32 31 30 29 28 27 27 26 26 26 26 26 26 25 24 23
21 22 23 23 24 24 24 23 24 24 24 24 24 24 25 26 27 27 28 29 29 29 30 30 29 29 29 27 27 27 26 26 25 25 25 25 24 24 23 23 22 21 20
18 19 20 20 21 21 21 21 22 22 22 23 23 24 24 25 26 27 27 27 27 27 27 27 27 26 26 25 25 25 25 24 24 24 23 23 22 22 21 20 19 18 18
14 15 15 16 16 18 18 19 19 19 20 21 21 22 22 23 24 24 24 25 25 25 25 24 24 24 24 23 23 23 23 23 22 22 22 21 20 20 19 18 18 18 18
13 13 14 14 15 15 16 16 17 18 18 18 19 20 20 21 21 22 22 22 22 22 22 22 22 21 21 21 21 21 21 21 21 21 20 19 19 18 18 17 17 17 17
11 12 13 13 14 14 14 15 16 16 17 17 17 18 18 19 19 20 20 20 20 19 19 19 19 20 20 20 20 20 20 20 19 19 18 17 17 16 16 16 16 15 15
9 10 11 11 11 12 13 14 14 15 15 15 15 16 16 17 17 17 17 17 17 17 17 17 18 18 18 18 18 18 18 17 17 17 16 16 16 15 15 14 14 13 12
8 8 9 9 10 11 12 13 13 14 14 14 14 14 14 15 15 14 14 14 14 15 15 16 16 16 16 17 17 17 16 16 15 15 15 14 14 13 13 12 11 11 10
6 7 7 8 9 9 10 10 11 10 10 11 11 11 11 11 11 11 11 11 12 13 14 14 14 15 15 15 14 14 14 14 13 13 12 12 11 11 10 10 9 8 7
5 5 6 7 7 8 8 8 8 8 8 8 8 9 8 8 9 9 9 9 10 11 12 12 12 13 13 13 12 12 11 11 11 11 10 10 9 9 8 8 7 6 5
4 4 5 5 5 6 6 5 5 6 6 6 6 6 6 6 6 7 8 9 10 10 10 11 11 11 11 11 11 10 10 10 10 9 8 8 7 7 6 5 5 4 4
3 4 4 4 4 4 4 4 4 4 4 4 5 5 5 5 6 7 8 8 9 9 10 10 10 10 10 10 10 9 9 8 8 7 7 6 6 5 5 4 3 3 3
2 2 2 3 3 4 4 4 4 4 4 4 5 5 6 6 7 8 8 9 9 9 10 10 10 10 10 10 10 9 8 8 7 7 6 6 5 4 4 3 3 3 3
3 3 3 3 4 4 5 5 5 6 6 6 6 6 7 7 8 8 9 9 10 10 10 10 11 11 11 11 10 10 9 8 8 7 7 6 5 5 4 4 4 4 4
6 6 6 6 6 6 7 7 7 7 7 8 8 8 8 8 9 9 10 10 11 11 11 12 12 12 12 11 11 10 10 9 9 8 8 7 6 6 5 5 5 5 5
10 10 9 9 9 9 9 8 8 8 8 9 9 9 9 9 10 10 11 11 11 12 12 12 13 13 12 12 12 12 11 11 10 10 9 8 8 7 6 6 6 6 6
12 12 12 11 11 10 10 10 10 10 10 10 10 10 10 10 10 10 11 11 12 12 12 13 13 13 13 13 13 13 12 12 11 11 10 10 9 8 8 7 7 6 6
14 14 14 13 12 12 12 11 11 10 10 10 10 10 10 10 10 10 11 11 11 11 12 12 13 13 13 13 13 13 12 12 12 11 10 10 9 9 8 8 7 7 7
16 15 15 14 13 12 12 12 11 11 11 10 10 10 10 10 10 10 10 11 11 11 11 11 12 12 12 13 13 12 12 12 11 11 10 10 9 9 8 8 8 7 7
16 16 15 14 13 13 12 12 11 11 11 10 10 10 10 10 10 10 10 10 11 11 11 11 11 11 11 11 11 11 11 11 11 11 10 10 9 9 8 8 8 8 8
Wind_Direction
254 257 259 259 260 262 264 266 268 269 269 267 268 269 270 268 266 268 269 270 270 272 273 274 276 278 281 284 285 287 288 290 291 292 293 294 295 296 296 296 297 297 297
255 256 257 259 260 260 262 265 267 267 267 267 267 267 267 270 270 271 272 273 275 276 277 278 280 283 284 286 287 289 291 292 292 293 295 296 296 296 297 297 297 298 298
256 256 256 257 258 260 261 263 264 265 266 267 267 268 270 273 273 273 274 275 276 278 280 282 284 286 287 289 290 291 292 293 294 295 296 296 296 296 297 298 299 299 300
257 256 257 258 259 260 261 264 265 267 269 269 267 269 271 274 274 275 276 279 281 283 284 286 288 289 289 290 291 292 293 294 295 296 296 297 297 298 298 299 300 301 303
258 257 258 258 258 260 262 263 265 268 269 269 268 268 270 273 275 277 280 283 284 285 286 288 289 289 290 292 293 294 295 296 296 297 298 298 299 299 300 301 303 305 306
257 256 256 256 258 260 261 262 264 265 267 267 267 270 273 276 278 281 282 284 285 286 287 288 289 291 292 293 294 295 296 297 299 299 300 300 302 302 304 304 305 306 307
259 258 259 261 260 262 264 265 266 268 269 270 273 276 279 280 281 283 285 286 287 288 288 289 291 292 293 295 296 297 298 299 300 302 303 304 305 305 305 305 305 305 306
259 258 260 262 264 264 266 268 270 271 271 273 276 278 281 284 286 287 288 289 289 289 290 292 293 294 295 296 296 297 299 300 302 303 304 305 305 306 305 305 305 305 305
259 260 262 264 265 265 267 269 272 272 274 276 278 280 283 285 286 288 289 290 290 291 292 293 294 294 295 296 297 297 298 299 300 301 302 303 304 304 305 305 305 305 306
260 262 264 265 266 268 270 273 275 276 277 279 280 283 284 286 287 288 289 291 291 292 292 293 294 295 296 297 297 298 298 298 299 300 301 301 302 303 303 304 304 304 305
272 271 272 274 276 278 279 278 278 279 280 280 281 283 285 287 288 289 291 292 293 293 293 294 296 297 298 298 299 298 298 298 298 299 299 300 301 302 302 301 302 302 302
277 276 276 277 278 279 280 282 281 281 282 283 284 286 288 289 291 292 294 294 294 295 295 297 298 299 299 300 300 300 299 299 298 298 298 298 300 300 301 300 300 300 300
277 278 280 281 282 285 287 287 286 285 285 286 289 290 291 293 294 295 296 297 297 298 300 301 301 302 302 302 302 301 300 299 298 298 298 298 298 300 302 303 304 303 303
280 283 289 293 292 291 289 288 287 287 287 288 290 292 295 298 298 299 300 299 300 303 306 306 306 305 305 305 305 304 302 302 301 301 300 300 299 301 303 304 304 303 303
294 296 295 297 298 298 296 294 292 292 294 296 297 298 301 302 303 305 306 306 308 310 311 311 311 311 310 310 309 308 307 306 306 306 305 304 304 304 305 305 307 306 306
299 301 300 301 304 304 306 306 304 304 307 308 309 310 311 312 313 315 317 319 321 321 320 320 319 319 318 317 315 314 313 313 313 312 311 311 311 311 311 312 314 315 316
303 308 311 313 317 319 319 321 321 320 320 323 327 328 327 328 330 332 332 333 333 332 331 330 329 329 329 328 327 325 323 322 322 321 320 321 321 321 321 323 324 325 328
317 325 331 335 339 343 348 349 346 345 348 352 353 352 351 351 351 352 351 350 347 345 345 345 346 346 346 346 344 341 339 337 336 335 335 335 336 337 339 340 343 347 356
346 344 355 6 10 12 12 12 13 14 18 20 18 18 17 16 13 10 8 6 4 3 4 3 2 1 1 1 0 360 358 357 356 355 355 356 357 1 6 12 21 26 30
52 48 47 46 40 37 36 39 41 43 44 44 42 38 35 33 28 25 23 22 21 20 19 18 16 14 13 14 15 16 18 17 17 17 19 22 26 31 35 38 41 43 47
65 65 66 65 62 59 58 58 57 58 56 52 49 47 46 43 38 35 34 33 32 30 28 27 26 25 25 25 25 26 26 26 27 29 33 36 39 42 42 43 45 48 52
70 72 74 74 72 69 66 64 62 60 58 55 52 51 48 45 40 39 39 38 36 35 33 32 31 30 30 30 31 32 33 33 35 38 41 43 44 44 45 46 50 52 52
72 71 75 75 73 71 69 67 65 64 61 58 56 52 49 47 44 42 40 37 35 34 34 33 32 32 32 32 33 34 36 38 40 41 43 45 45 44 43 43 45 44 41
74 74 74 74 72 71 68 66 64 62 59 58 55 52 50 48 45 42 40 36 34 34 34 34 33 32 32 32 33 34 35 37 37 38 38 38 39 38 37 37 36 33 27
73 73 73 72 70 68 64 62 59 57 56 55 53 51 48 45 42 39 36 32 31 30 30 30 29 29 29 30 30 31 32 33 33 33 32 31 32 30 27 25 22 17 13
70 71 70 68 66 62 59 56 55 54 53 52 50 46 43 40 37 34 31 28 26 25 23 22 21 21 21 21 21 21 22 23 24 24 24 23 22 19 15 12 9 5 1
Height
5757 5759 5761 5763 5765 5767 5768 5769 5770 5771 5771 5772 5772 5773 5773 5773 5773 5774 5774 5775 5775 5775 5775 5774 5774 5774 5773 5772 5770 5769 5767 5765 5763 5762 5759 5755 5752 5749 5745 5742 5739 5735 5731
5751 5753 5755 5757 5759 5760 5762 5763 5764 5765 5766 5766 5767 5767 5767 5767 5768 5768 5768 5768 5768 5768 5768 5767 5767 5766 5765 5764 5762 5760 5758 5755 5753 5751 5748 5745 5741 5738 5734 5731 5728 5724 5720
5745 5747 5749 5751 5753 5754 5756 5757 5758 5759 5760 5760 5760 5761 5761 5761 5762 5762 5762 5762 5761 5761 5760 5760 5759 5758 5756 5755 5753 5751 5749 5746 5743 5740 5737 5734 5731 5728 5724 5721 5717 5713 5710
5740 5742 5743 5745 5746 5748 5749 5751 5752 5752 5753 5754 5754 5755 5755 5755 5755 5755 5755 5755 5754 5753 5753 5752 5751 5749 5748 5746 5744 5742 5739 5736 5733 5730 5727 5724 5722 5718 5715 5712 5708 5705 5701
5735 5736 5738 5739 5740 5742 5743 5744 5745 5746 5746 5747 5747 5748 5748 5748 5748 5748 5748 5747 5747 5746 5745 5744 5742 5741 5739 5737 5735 5732 5730 5727 5724 5721 5718 5716 5713 5710 5707 5703 5700 5697 5693
5729 5730 5731 5733 5734 5735 5736 5737 5738 5739 5740 5740 5741 5741 5741 5741 5741 5741 5740 5740 5739 5738 5737 5736 5734 5732 5730 5728 5726 5723 5721 5719 5716 5713 5711 5708 5705 5702 5699 5696 5693 5690 5687
5723 5724 5725 5727 5728 5729 5730 5731 5732 5733 5734 5734 5734 5735 5735 5734 5734 5733 5733 5732 5731 5730 5729 5728 5726 5724 5722 5719 5717 5715 5713 5711 5708 5706 5704 5701 5699 5696 5693 5690 5687 5685 5682
5718 5719 5720 5721 5723 5724 5724 5725 5726 5727 5727 5728 5728 5728 5728 5728 5727 5726 5726 5725 5723 5722 5721 5719 5718 5716 5714 5712 5710 5708 5706 5704 5702 5700 5698 5695 5693 5690 5687 5685 5682 5680 5677
5713 5714 5715 5717 5717 5718 5719 5720 5720 5721 5721 5722 5722 5722 5722 5721 5720 5719 5718 5717 5716 5715 5713 5712 5710 5709 5707 5705 5703 5701 5700 5698 5696 5694 5692 5689 5687 5684 5682 5680 5678 5675 5673
5709 5710 5711 5712 5713 5713 5714 5714 5715 5716 5716 5716 5716 5716 5716 5715 5714 5713 5712 5710 5709 5708 5707 5705 5704 5702 5701 5699 5697 5695 5694 5692 5690 5688 5686 5684 5682 5679 5677 5675 5673 5671 5669
5706 5706 5707 5708 5709 5709 5709 5709 5710 5710 5710 5711 5711 5710 5710 5709 5708 5707 5706 5704 5703 5702 5701 5699 5698 5696 5695 5693 5691 5690 5688 5686 5684 5682 5680 5679 5677 5675 5673 5671 5669 5667 5665
5702 5703 5704 5704 5705 5705 5705 5705 5705 5706 5706 5706 5705 5705 5704 5703 5703 5701 5700 5699 5698 5697 5695 5694 5693 5691 5690 5688 5686 5684 5682 5681 5679 5677 5676 5674 5672 5671 5669 5667 5665 5663 5661
5700 5700 5701 5701 5701 5701 5701 5701 5702 5702 5701 5701 5701 5700 5699 5698 5697 5696 5695 5694 5693 5692 5691 5689 5688 5686 5685 5683 5681 5679 5678 5676 5674 5673 5671 5670 5668 5666 5665 5663 5661 5660 5658
5697 5697 5698 5698 5698 5698 5698 5698 5698 5698 5697 5697 5696 5696 5695 5694 5694 5692 5691 5690 5689 5688 5687 5685 5684 5682 5681 5679 5677 5675 5673 5672 5670 5669 5667 5666 5664 5663 5661 5660 5658 5657 5656
5695 5696 5696 5696 5696 5695 5695 5694 5694 5694 5693 5693 5693 5692 5692 5692 5691 5690 5689 5688 5687 5685 5684 5682 5681 5679 5677 5675 5673 5672 5670 5668 5667 5665 5663 5662 5661 5659 5658 5657 5655 5654 5653
5694 5694 5695 5694 5694 5693 5693 5692 5692 5691 5691 5691 5691 5690 5690 5689 5689 5688 5687 5686 5684 5683 5681 5680 5678 5676 5674 5672 5670 5669 5667 5665 5663 5662 5660 5659 5658 5657 5655 5654 5653 5652 5652
5693 5693 5693 5693 5693 5692 5692 5691 5691 5691 5690 5690 5690 5689 5689 5688 5687 5686 5685 5684 5683 5681 5680 5678 5676 5674 5672 5670 5668 5666 5664 5663 5661 5660 5658 5657 5656 5655 5654 5653 5652 5651 5650
5692 5693 5693 5693 5692 5692 5691 5691 5691 5691 5690 5690 5690 5689 5688 5688 5687 5686 5685 5683 5682 5681 5679 5677 5675 5673 5671 5669 5667 5665 5663 5661 5660 5658 5657 5656 5654 5653 5653 5652 5651 5650 5650
5692 5692 5693 5693 5693 5692 5692 5692 5691 5691 5691 5690 5690 5689 5689 5688 5687 5686 5685 5684 5682 5680 5679 5677 5675 5673 5671 5668 5666 5664 5662 5661 5659 5658 5656 5655 5654 5653 5652 5652 5651 5650 5650
5693 5693 5693 5693 5693 5693 5693 5693 5692 5692 5692 5691 5691 5690 5690 5689 5688 5687 5686 5684 5683 5681 5679 5677 5675 5673 5671 5669 5667 5665 5663 5661 5659 5658 5656 5655 5654 5653 5653 5652 5651 5651 5650
5694 5694 5694 5694 5694 5695 5694 5694 5694 5693 5693 5693 5693 5692 5691 5691 5690 5688 5687 5686 5684 5682 5681 5679 5677 5675 5672 5670 5668 5666 5664 5662 5660 5659 5657 5656 5655 5654 5654 5653 5652 5651 5651
5697 5696 5696 5697 5697 5697 5696 5696 5696 5696 5696 5695 5695 5694 5693 5692 5691 5690 5689 5688 5686 5684 5683 5681 5679 5677 5674 5672 5670 5668 5666 5664 5662 5660 5659 5658 5657 5656 5655 5654 5653 5652 5652
5700 5700 5700 5700 5700 5699 5699 5699 5699 5698 5698 5697 5697 5696 5695 5694 5694 5692 5691 5690 5688 5687 5685 5683 5681 5679 5677 5674 5672 5670 5668 5666 5664 5663 5661 5660 5659 5658 5657 5656 5655 5654 5653
5704 5704 5704 5703 5703 5703 5703 5702 5702 5701 5701 5700 5699 5699 5698 5697 5696 5695 5694 5692 5691 5689 5687 5685 5683 5681 5679 5677 5675 5673 5671 5669 5667 5665 5664 5662 5661 5660 5658 5657 5656 5655 5654
5709 5708 5708 5707 5707 5707 5706 5705 5705 5704 5703 5703 5702 5701 5700 5699 5698 5697 5696 5694 5693 5691 5689 5687 5686 5684 5682 5679 5677 5675 5673 5671 5669 5667 5666 5664 5663 5661 5660 5659 5657 5656 5655
5713 5713 5712 5711 5711 5710 5709 5709 5708 5707 5706 5705 5704 5703 5702 5701 5700 5699 5698 5696 5694 5693 5691 5689 5687 5685 5683 5681 5679 5677 5675 5673 5671 5669 5668 5666 5664 5663 5661 5660 5658 5656 5655